User: anonymous   Login
Location: St Andrew
(49.4460°N, 2.5750°W)
Time: 13:40:55
(UTC+01:00)
Language:

Iridium 66 - Orbit

View from above orbital plane
View from above orbital plane
View from above satellite
View from above satellite

Ground track
Ground track

The orbit data is extracted from the following two-line orbital elements,

1 25289U 98021E   16180.52338453  .00000023  00000-0  12368-5 0  9995
2 25289  86.3949  11.6163 0002326  89.4957 325.9031 14.34215425954327
Epoch (UTC): 28 June 2016 12:33:40
Eccentricity: 0.0002326
inclination: 86.3949°
perigee height: 776 km
apogee height: 779 km
right ascension of ascending node: 11.6163°
argument of perigee: 89.4957°
revolutions per day: 14.34215425
mean anomaly at epoch: 325.9031°
orbit number at epoch: 95432

The dashed part of the orbit path shows where the satellite is in the earth's shadow,  

DLR